• In Hungary
  • List of Countries
  • For 7 days
  • Water Temperature
  • Satellite Maps
  • Weather Map
  • News
  • Weather Widgets
  • user-avatar
    Login

    Hourly Weather Malaya Malyshevka

    Today, 19 July, Thursday

    Time Temperature Precipitation Wind Pressure Humidity
    00:00 +22°C° 0.7 mm 1 mps 747 mmHg 81%
    01:00 +21°C° 0.3 mm 1 mps 747 mmHg 82%
    02:00 +21°C° 0.3 mm 1 mps 747 mmHg 83%
    03:00 +21°C° 0.3 mm 1 mps 747 mmHg 84%
    04:00 +20°C° 0.2 mm 2 mps 747 mmHg 83%
    05:00 +21°C° 0.2 mm 2 mps 748 mmHg 81%
    06:00 +23°C° 0.2 mm 2 mps 748 mmHg 80%
    07:00 +25°C° 0 mm 2 mps 748 mmHg 74%
    08:00 +26°C° 0 mm 3 mps 748 mmHg 68%
    09:00 +28°C° 0 mm 3 mps 748 mmHg 61%
    10:00 +29°C° 0.2 mm 3 mps 748 mmHg 57%
    11:00 +30°C° 0.2 mm 3 mps 748 mmHg 53%
    12:00 +32°C° 0.2 mm 4 mps 748 mmHg 48%
    13:00 +31°C° 0 mm 3 mps 748 mmHg 49%
    14:00 +31°C° 0 mm 3 mps 748 mmHg 49%
    15:00 +31°C° 0 mm 3 mps 748 mmHg 50%
    16:00 +31°C° 0 mm 2 mps 748 mmHg 53%
    17:00 +30°C° 0 mm 1 mps 748 mmHg 56%
    18:00 +30°C° 0 mm 1 mps 748 mmHg 60%
    19:00 +28°C° 0 mm 1 mps 749 mmHg 61%
    20:00 +27°C° 0 mm 1 mps 749 mmHg 62%
    21:00 +25°C° 0 mm 1 mps 749 mmHg 64%
    22:00 +25°C° 0 mm 1 mps 749 mmHg 65%
    23:00 +24°C° 0 mm 1 mps 749 mmHg 66%

    Tomorrow, 20 July, Friday

    Time Temperature Precipitation Wind Pressure Humidity
    00:00 +24°C° 0 mm 1 mps 749 mmHg 67%
    01:00 +23°C° 0.1 mm 1 mps 749 mmHg 68%
    02:00 +23°C° 0.1 mm 1 mps 749 mmHg 70%
    03:00 +22°C° 0.1 mm 1 mps 749 mmHg 71%
    04:00 +23°C° 0 mm 1 mps 749 mmHg 70%
    05:00 +24°C° 0 mm 1 mps 749 mmHg 69%
    06:00 +25°C° 0 mm 1 mps 749 mmHg 69%
    07:00 +27°C° 0 mm 1 mps 749 mmHg 64%
    08:00 +28°C° 0 mm 1 mps 750 mmHg 59%
    09:00 +30°C° 0 mm 2 mps 750 mmHg 54%
    10:00 +31°C° 0 mm 1 mps 750 mmHg 49%
    11:00 +32°C° 0 mm 1 mps 750 mmHg 45%
    12:00 +33°C° 0 mm 1 mps 749 mmHg 40%
    13:00 +33°C° 0 mm 1 mps 749 mmHg 40%
    14:00 +33°C° 0 mm 1 mps 749 mmHg 41%
    15:00 +34°C° 0 mm 2 mps 749 mmHg 41%
    16:00 +32°C° 0 mm 2 mps 749 mmHg 48%
    17:00 +31°C° 0 mm 3 mps 749 mmHg 55%
    18:00 +30°C° 0 mm 3 mps 749 mmHg 62%
    19:00 +29°C° 0 mm 3 mps 749 mmHg 65%
    20:00 +27°C° 0 mm 3 mps 749 mmHg 68%
    21:00 +26°C° 0 mm 3 mps 749 mmHg 71%
    22:00 +25°C° 0.2 mm 3 mps 749 mmHg 74%
    23:00 +24°C° 0.2 mm 3 mps 749 mmHg 77%

    Day after tomorrow, 21 July, Saturday

    Time Temperature Precipitation Wind Pressure Humidity
    00:00 +22°C° 0.2 mm 3 mps 749 mmHg 80%
    01:00 +22°C° 0.9 mm 3 mps 749 mmHg 83%
    02:00 +21°C° 0.9 mm 2 mps 749 mmHg 86%
    03:00 +21°C° 0.9 mm 2 mps 749 mmHg 88%
    04:00 +23°C° 0.2 mm 2 mps 749 mmHg 87%
    05:00 +23°C° 0.2 mm 2 mps 750 mmHg 85%
    06:00 +24°C° 0.2 mm 2 mps 750 mmHg 83%
    07:00 +25°C° 0.5 mm 3 mps 750 mmHg 78%
    08:00 +27°C° 0.5 mm 3 mps 750 mmHg 74%
    09:00 +28°C° 0.5 mm 4 mps 750 mmHg 69%
    10:00 +29°C° 0.3 mm 4 mps 750 mmHg 64%
    11:00 +30°C° 0.3 mm 4 mps 750 mmHg 60%
    12:00 +31°C° 0.3 mm 3 mps 750 mmHg 55%
    13:00 +32°C° 0.1 mm 4 mps 750 mmHg 56%
    14:00 +32°C° 0.1 mm 4 mps 750 mmHg 57%
    15:00 +32°C° 0.1 mm 4 mps 750 mmHg 57%
    16:00 +30°C° 0.1 mm 4 mps 750 mmHg 62%
    17:00 +29°C° 0.1 mm 4 mps 750 mmHg 66%
    18:00 +28°C° 0.1 mm 4 mps 750 mmHg 71%
    19:00 +27°C° 0.3 mm 4 mps 750 mmHg 74%
    20:00 +26°C° 0.3 mm 4 mps 750 mmHg 77%
    21:00 +23°C° 0.3 mm 5 mps 750 mmHg 80%
    22:00 +23°C° 0.5 mm 4 mps 750 mmHg 82%
    23:00 +22°C° 0.5 mm 4 mps 750 mmHg 83%

    22 July, Sunday

    Time Temperature Precipitation Wind Pressure Humidity
    00:00 +22°C° 0.5 mm 4 mps 750 mmHg 85%
    01:00 +21°C° 0.9 mm 4 mps 750 mmHg 86%
    02:00 +21°C° 0.9 mm 4 mps 751 mmHg 88%
    03:00 +20°C° 0.9 mm 4 mps 751 mmHg 90%
    04:00 +20°C° 0 mm 4 mps 751 mmHg 88%
    05:00 +21°C° 0 mm 4 mps 751 mmHg 86%
    06:00 +21°C° 0 mm 5 mps 751 mmHg 84%
    07:00 +22°C° 0 mm 5 mps 751 mmHg 80%
    08:00 +23°C° 0 mm 5 mps 751 mmHg 75%
    09:00 +26°C° 0 mm 5 mps 751 mmHg 71%
    10:00 +27°C° 0 mm 5 mps 751 mmHg 68%
    11:00 +28°C° 0 mm 6 mps 751 mmHg 66%
    12:00 +28°C° 0 mm 6 mps 751 mmHg 63%
    13:00 +28°C° 0.6 mm 6 mps 751 mmHg 64%
    14:00 +28°C° 0.6 mm 6 mps 751 mmHg 65%
    15:00 +28°C° 0.6 mm 6 mps 751 mmHg 66%
    16:00 +28°C° 0.4 mm 5 mps 751 mmHg 68%
    17:00 +27°C° 0.4 mm 5 mps 751 mmHg 71%
    18:00 +26°C° 0.4 mm 4 mps 751 mmHg 73%
    19:00 +25°C° 0.1 mm 4 mps 751 mmHg 75%
    20:00 +23°C° 0.1 mm 5 mps 751 mmHg 77%
    21:00 +22°C° 0.1 mm 5 mps 751 mmHg 79%
    22:00 +21°C° 0 mm 5 mps 751 mmHg 77%
    23:00 +21°C° 0 mm 5 mps 751 mmHg 76%

    23 July, Monday

    Time Temperature Precipitation Wind Pressure Humidity
    00:00 +20°C° 0 mm 5 mps 751 mmHg 74%
    01:00 +20°C° 0 mm 5 mps 751 mmHg 73%
    02:00 +19°C° 0 mm 5 mps 752 mmHg 72%
    03:00 +18°C° 0 mm 4 mps 752 mmHg 71%
    04:00 +17°C° 0 mm 5 mps 752 mmHg 69%
    05:00 +19°C° 0 mm 5 mps 752 mmHg 67%
    06:00 +19°C° 0 mm 6 mps 752 mmHg 65%
    07:00 +20°C° 0 mm 6 mps 753 mmHg 62%
    08:00 +21°C° 0 mm 6 mps 753 mmHg 60%
    09:00 +22°C° 0 mm 6 mps 753 mmHg 57%
    10:00 +23°C° 0 mm 6 mps 753 mmHg 55%
    11:00 +26°C° 0 mm 6 mps 753 mmHg 53%
    12:00 +27°C° 0 mm 6 mps 753 mmHg 51%
    13:00 +27°C° 0 mm 6 mps 753 mmHg 51%
    14:00 +27°C° 0 mm 6 mps 753 mmHg 50%
    15:00 +27°C° 0 mm 6 mps 753 mmHg 50%
    16:00 +26°C° 0 mm 5 mps 753 mmHg 53%
    17:00 +25°C° 0 mm 5 mps 753 mmHg 57%
    18:00 +25°C° 0 mm 4 mps 753 mmHg 61%
    19:00 +22°C° 0 mm 4 mps 753 mmHg 62%
    20:00 +21°C° 0 mm 4 mps 754 mmHg 64%
    21:00 +20°C° 0 mm 4 mps 754 mmHg 65%
    22:00 +19°C° 0 mm 5 mps 754 mmHg 65%
    23:00 +19°C° 0 mm 5 mps 754 mmHg 64%

    24 July, Tuesday

    Time Temperature Precipitation Wind Pressure Humidity
    00:00 +17°C° 0 mm 5 mps 754 mmHg 63%
    01:00 +17°C° 0 mm 5 mps 754 mmHg 64%
    02:00 +17°C° 0 mm 4 mps 754 mmHg 64%
    03:00 +17°C° 0 mm 4 mps 754 mmHg 65%
    04:00 +16°C° 0 mm 5 mps 754 mmHg 65%
    05:00 +16°C° 0 mm 5 mps 755 mmHg 66%
    06:00 +16°C° 0 mm 6 mps 755 mmHg 66%
    07:00 +19°C° 0 mm 5 mps 755 mmHg 62%
    08:00 +21°C° 0 mm 5 mps 755 mmHg 58%
    09:00 +22°C° 0 mm 5 mps 755 mmHg 54%
    10:00 +25°C° 0 mm 5 mps 755 mmHg 50%
    11:00 +26°C° 0 mm 6 mps 755 mmHg 46%
    12:00 +27°C° 0 mm 6 mps 755 mmHg 42%
    13:00 +28°C° 0 mm 6 mps 755 mmHg 42%
    14:00 +28°C° 0 mm 5 mps 755 mmHg 42%
    15:00 +28°C° 0 mm 5 mps 755 mmHg 41%
    16:00 +27°C° 0 mm 5 mps 755 mmHg 46%
    17:00 +26°C° 0 mm 4 mps 755 mmHg 51%
    18:00 +25°C° 0 mm 4 mps 755 mmHg 56%
    19:00 +23°C° 0 mm 4 mps 755 mmHg 59%
    20:00 +21°C° 0 mm 4 mps 755 mmHg 61%
    21:00 +20°C° 0 mm 4 mps 756 mmHg 64%
    22:00 +19°C° 0 mm 4 mps 756 mmHg 65%
    23:00 +19°C° 0 mm 4 mps 756 mmHg 66%
    Show more